Theta_e
352 355 354 354 355 355 355 354 354 355 356 355 356 357 359 358 358 359 359 357 356 357 358 357 356 356 357 357 357 358 359 359 359 358 357 356 356 357 357 357 356 355 354 354 354 354 352 350 349 347 346 346 346 345 345 344 343 343 344 345 345 344 344 343 344 344 343 343 342 342 342 343 344 343 342 341 341 342 343 346 345 345 347 346 347
351 353 354 354 354 355 356 356 356 357 357 357 358 359 360 360 360 360 360 359 357 357 358 358 357 357 357 357 357 358 359 358 357 357 356 354 356 358 356 356 357 355 355 354 353 352 350 349 348 346 347 346 346 346 345 345 343 343 344 344 344 344 343 343 343 343 342 342 342 342 342 342 343 342 340 339 340 340 340 341 341 341 341 342 343
350 351 353 354 353 354 356 357 357 357 358 359 360 360 361 361 360 361 360 360 359 358 359 359 359 359 358 358 358 357 357 356 356 355 356 354 355 357 356 356 356 354 356 355 352 351 349 348 348 347 347 347 346 344 344 344 343 343 343 343 343 342 342 342 343 343 342 342 342 342 341 341 344 343 340 339 339 339 338 338 338 338 339 339 339
351 349 350 351 352 353 354 356 356 357 358 360 361 362 362 362 362 361 361 360 360 360 360 360 360 361 360 361 361 358 355 355 356 356 357 356 356 356 356 356 355 354 355 353 351 350 349 348 348 348 347 347 344 341 343 343 343 343 343 343 343 342 341 341 341 342 342 343 342 341 339 340 342 341 339 340 338 337 337 337 337 336 337 338 337
352 350 348 350 351 351 353 355 356 356 358 359 361 362 362 363 363 363 362 361 361 361 361 361 361 361 361 361 360 358 357 356 357 356 356 356 355 355 355 356 355 354 354 352 351 350 349 349 348 348 347 345 341 340 342 343 343 343 343 343 342 342 341 339 340 341 341 342 342 342 341 340 340 338 340 341 338 337 337 336 335 334 335 336 336
352 351 347 348 350 351 352 355 356 356 356 358 360 361 362 363 364 363 363 362 361 361 362 361 360 360 360 359 358 358 358 358 358 356 355 355 354 353 354 356 355 354 353 352 351 351 350 349 349 347 345 342 340 341 342 342 343 343 342 343 342 342 341 339 340 340 340 341 342 342 341 341 340 339 339 340 339 337 337 335 332 331 332 333 334
352 351 347 347 349 350 353 355 356 356 356 358 359 361 362 363 364 365 364 363 362 362 362 361 360 360 359 359 358 358 358 358 358 357 356 354 353 354 354 355 355 354 353 352 351 351 350 349 348 345 342 341 342 342 343 342 343 343 342 342 342 342 341 340 339 339 340 340 340 340 340 339 340 340 339 339 339 338 336 334 331 330 330 330 330
352 351 348 347 349 351 353 355 356 355 355 358 359 360 363 364 365 365 364 364 364 363 363 362 361 360 360 360 359 358 358 358 358 358 357 356 355 355 355 355 355 354 353 352 351 349 348 347 346 342 340 341 342 342 343 342 343 343 343 342 341 341 341 340 339 338 338 338 338 338 338 338 339 338 338 338 338 338 336 335 332 330 329 327 327
351 350 349 348 350 351 352 354 356 355 355 357 359 360 362 365 365 365 365 364 365 364 364 363 362 361 361 360 360 359 359 358 357 357 357 357 357 356 356 356 355 354 353 352 350 348 346 346 343 341 341 343 343 342 343 343 343 343 343 342 341 341 340 340 340 339 337 337 338 338 337 337 337 336 337 337 337 337 335 334 333 332 330 327 326
351 350 350 350 351 352 352 354 355 355 355 356 358 361 361 364 365 366 366 365 365 365 364 364 363 362 362 361 361 360 359 358 357 357 357 357 357 356 357 356 355 354 352 351 349 347 345 343 342 341 342 343 343 343 342 342 343 343 343 342 341 341 340 340 340 339 338 338 338 337 336 336 336 336 336 335 336 336 335 334 333 333 331 329 327
352 350 350 351 352 352 352 354 355 355 356 356 359 361 361 363 365 365 366 365 365 365 364 364 364 362 362 362 361 360 359 359 358 357 357 357 357 356 356 355 354 352 350 349 348 346 343 341 340 341 342 343 343 343 343 342 341 341 342 342 341 341 340 340 340 339 338 338 337 337 337 336 337 337 335 335 335 335 334 334 333 332 331 331 329
353 351 351 351 353 353 353 354 356 358 358 358 359 360 361 362 364 365 366 366 366 365 365 364 364 364 363 362 362 361 360 360 359 359 358 358 357 355 355 354 352 350 349 347 346 344 342 342 341 341 342 343 343 342 342 340 339 340 341 342 341 341 340 340 340 339 338 338 337 337 337 337 336 336 336 335 334 334 334 334 333 332 332 331 331
352 352 351 352 352 354 355 356 357 359 360 359 359 359 360 362 363 365 365 366 365 365 365 364 364 364 363 363 363 362 361 360 360 360 359 359 357 355 354 353 352 351 348 346 345 343 343 343 342 342 343 343 342 341 340 340 339 339 341 342 341 340 340 340 339 339 338 338 338 337 337 337 336 336 336 335 334 335 335 334 332 332 333 332 331
352 353 353 352 353 355 356 357 358 360 360 360 360 359 360 362 363 364 365 365 365 365 365 364 364 364 363 364 363 363 362 361 361 360 359 359 358 356 354 353 352 351 348 346 344 343 343 343 343 343 343 343 342 341 341 341 341 340 341 342 341 340 340 339 339 338 338 338 337 337 337 337 336 335 336 336 334 334 334 334 333 333 332 332 332
351 353 353 353 355 356 357 358 359 361 361 360 360 360 360 362 363 364 364 365 366 365 364 364 364 363 363 364 364 363 363 362 361 359 359 359 358 357 355 353 352 350 348 346 344 343 342 343 344 343 343 343 342 342 342 342 342 342 342 342 341 340 340 339 339 338 338 338 337 338 337 336 336 336 335 335 335 334 334 333 334 334 332 331 331
351 352 354 354 355 357 358 358 359 361 360 359 360 360 361 362 363 364 364 365 366 365 365 364 364 364 364 364 364 365 364 363 361 360 360 359 358 357 356 354 352 350 348 347 345 344 343 344 344 343 343 343 343 343 343 342 342 343 342 342 341 340 340 340 339 339 338 337 337 337 337 336 336 336 335 335 335 335 334 334 334 334 333 333 332
351 353 354 355 356 357 358 357 358 359 359 360 360 361 361 362 363 364 364 364 366 365 365 364 364 364 365 365 364 365 365 363 362 361 360 359 358 358 356 354 352 350 349 347 346 344 343 344 344 342 343 343 343 343 342 342 343 343 342 342 341 340 340 340 339 339 338 337 337 337 337 336 336 337 337 336 336 336 336 335 335 334 333 333 333
352 354 355 355 356 357 358 357 357 358 359 360 360 361 362 361 363 364 364 365 365 366 365 364 365 365 364 366 365 365 365 363 362 361 360 359 358 357 355 353 352 350 349 347 346 345 344 344 343 342 342 343 342 342 341 342 342 342 341 342 341 339 340 339 338 338 337 337 337 336 336 336 336 336 336 336 337 337 336 336 336 335 334 333 333
353 353 354 356 355 357 358 357 356 358 359 360 360 361 361 362 363 363 364 364 364 366 366 365 365 365 365 366 365 365 364 362 362 361 359 358 357 357 356 354 353 350 348 346 345 344 344 344 343 342 342 342 342 341 341 342 342 341 340 340 340 339 339 339 338 337 337 337 337 336 336 336 336 336 336 336 339 339 339 337 336 336 335 334 333
352 352 354 355 354 356 358 356 356 357 359 360 360 359 360 361 362 362 363 364 364 365 365 365 365 365 365 366 366 365 363 362 362 360 358 358 357 357 355 354 352 349 347 346 344 343 343 344 343 341 341 341 341 340 340 341 341 340 340 338 339 339 339 339 338 337 336 336 337 336 336 336 336 336 336 336 337 338 339 338 336 336 335 335 334
353 352 353 353 353 355 356 356 356 357 359 359 358 358 358 359 361 362 362 364 364 365 365 366 366 365 366 366 365 364 362 361 361 359 358 358 357 356 355 353 351 348 346 345 343 342 343 344 342 340 340 340 341 340 340 340 340 340 340 339 338 339 339 338 337 337 337 336 336 336 336 336 337 337 338 337 335 334 334 334 333 333 332 333 333
352 352 351 352 353 355 355 356 356 356 358 359 358 358 358 358 360 360 361 362 362 365 366 366 366 366 366 365 364 363 361 361 360 358 358 357 356 354 354 353 350 347 344 343 343 343 343 343 342 340 340 340 341 341 340 339 339 339 339 339 338 338 338 338 338 338 337 336 336 336 336 336 336 337 338 337 335 333 332 332 331 331 331 330 331
351 349 350 352 353 354 356 356 357 357 358 359 358 358 358 358 358 359 360 360 360 362 366 367 366 366 365 363 362 361 360 359 358 356 356 356 355 354 354 353 347 344 341 339 341 343 343 344 342 340 340 341 341 342 340 339 340 340 339 338 337 338 338 338 338 338 337 337 336 336 336 336 335 336 336 336 335 333 333 332 331 331 331 331 330
352 350 350 351 352 356 358 358 359 359 359 360 359 358 359 358 358 358 359 360 359 361 366 367 366 365 363 361 360 360 358 357 356 355 355 356 354 353 354 351 343 341 340 337 337 340 343 345 343 340 341 341 341 342 340 339 340 340 340 338 339 339 339 338 338 337 337 337 337 337 336 335 335 335 336 335 335 334 333 333 332 332 331 331 331
354 352 351 352 354 359 360 361 362 361 360 361 360 359 360 359 358 358 358 359 360 360 364 366 365 363 361 359 359 358 357 356 356 355 354 355 353 352 352 348 341 338 335 333 333 335 339 342 341 340 340 340 340 341 340 340 340 340 340 339 339 340 339 339 338 338 337 337 337 337 336 336 336 336 336 336 335 334 333 333 332 332 331 331 330
355 353 354 355 358 361 362 363 364 363 362 363 362 360 359 359 359 359 358 360 361 360 364 365 364 362 360 359 359 358 356 356 355 354 354 353 352 350 345 339 338 335 329 328 330 331 334 335 335 338 340 339 340 340 340 340 340 340 340 340 339 339 340 339 339 338 337 337 337 337 337 336 336 336 337 336 335 334 333 333 333 332 331 331 331
355 355 356 358 361 363 364 365 366 365 363 363 363 360 360 361 361 360 359 360 361 361 363 364 362 361 360 360 360 358 356 355 353 353 352 352 352 347 335 331 335 335 332 331 331 330 330 330 332 336 338 339 340 341 341 341 340 340 340 341 340 340 339 340 339 338 337 336 336 337 337 336 336 336 336 337 336 335 334 333 333 333 332 331 331
356 357 359 361 363 364 366 366 366 365 363 364 363 361 361 362 362 361 360 361 362 363 364 364 362 361 360 360 360 356 354 353 352 351 351 352 353 346 333 331 336 336 335 335 334 333 333 334 335 336 336 337 339 341 341 340 340 339 340 341 341 341 339 339 338 338 337 336 335 336 336 336 336 336 336 336 336 336 335 334 333 332 332 331 331
356 358 360 361 363 365 366 365 365 365 364 364 363 362 363 363 363 363 361 361 363 365 365 365 362 361 359 358 358 355 353 352 351 352 350 352 355 346 334 333 335 334 335 336 336 337 337 337 336 335 334 336 338 340 339 338 340 341 341 341 341 340 339 338 337 337 337 336 335 335 335 334 334 335 336 335 334 334 334 334 333 333 332 332 332
355 358 360 361 362 364 364 364 365 365 364 364 363 363 364 363 363 363 362 362 364 365 366 364 362 360 357 356 357 355 353 352 351 351 351 352 354 349 341 337 333 332 336 337 337 339 340 340 336 333 333 335 338 340 338 337 337 338 339 341 340 339 339 338 337 337 336 336 335 335 335 334 334 334 333 331 330 330 331 331 331 331 332 332 332
354 358 359 360 361 362 363 363 363 364 365 364 364 364 364 363 363 363 363 363 364 366 365 363 361 359 356 355 356 354 353 352 351 351 352 353 352 349 345 340 335 335 338 338 338 340 342 341 339 337 337 337 338 339 338 336 333 331 333 337 338 338 339 338 337 337 337 336 335 335 335 335 335 334 332 329 328 329 328 328 329 329 330 331 332
355 358 359 359 360 362 363 362 362 364 365 365 365 365 364 363 362 363 363 363 365 366 364 362 361 358 356 355 354 354 353 352 352 352 351 352 352 349 346 343 340 338 339 340 340 341 342 342 341 340 340 340 339 339 339 336 330 328 331 333 335 336 338 338 337 336 336 336 335 335 334 333 334 335 334 332 332 332 331 329 328 327 328 329 330
357 358 359 358 358 360 361 362 362 364 364 364 364 365 364 363 362 363 363 363 365 365 363 362 360 358 356 355 354 353 353 352 353 353 351 351 351 349 347 346 344 341 340 340 337 337 341 343 341 341 340 341 341 340 339 334 329 328 332 333 332 335 336 337 337 337 336 336 336 335 334 334 334 334 335 335 334 335 335 333 331 330 329 329 329
355 356 357 358 358 359 360 361 361 362 363 362 363 364 364 363 361 362 363 364 365 365 362 361 360 358 356 355 354 354 352 352 353 353 352 352 351 350 348 345 344 343 343 341 335 336 342 342 340 341 341 341 340 339 336 332 327 327 332 334 333 334 336 337 337 337 337 336 336 336 336 335 334 334 336 337 338 338 337 337 336 335 333 332 333
356 357 357 358 358 358 359 360 359 359 359 361 362 363 363 362 362 362 364 364 365 364 362 360 359 357 356 354 354 353 352 352 352 353 353 352 351 351 348 345 345 345 344 343 340 341 344 343 341 342 342 342 341 339 335 331 326 325 331 334 334 334 336 337 337 338 337 337 337 336 336 335 336 337 337 338 339 339 338 337 337 336 335 335 334
356 357 357 358 358 358 360 361 359 358 359 361 361 361 361 362 362 363 364 365 365 364 362 359 358 357 355 353 353 352 352 352 352 353 353 352 351 350 346 345 344 343 343 343 343 342 343 343 343 343 342 342 341 339 336 332 327 326 331 335 334 334 336 337 337 337 337 337 337 338 338 338 338 339 339 337 337 336 335 334 335 335 334 333 331
353 354 356 358 358 359 361 361 359 359 359 360 360 360 360 362 362 363 363 363 363 363 361 359 358 356 354 353 352 352 352 352 352 353 352 351 351 349 346 343 341 340 341 343 342 342 343 343 343 343 342 343 342 341 339 336 331 329 333 335 334 335 337 339 338 338 338 338 339 339 340 339 336 337 337 336 334 332 331 332 334 333 332 330 329
350 353 357 359 359 360 360 359 358 358 357 358 358 359 361 362 361 361 362 362 362 363 361 360 358 356 353 352 352 351 351 352 352 353 352 352 351 349 346 344 341 341 342 342 341 342 344 343 342 342 342 342 342 342 341 339 336 335 335 335 335 338 340 339 339 338 338 338 338 338 337 335 333 334 333 332 331 330 330 331 333 333 332 331 330
354 356 358 358 359 358 357 357 357 357 358 358 359 360 361 362 361 361 361 362 362 362 361 360 358 355 353 352 352 351 351 352 352 353 352 351 349 347 346 345 343 341 341 342 341 341 343 343 342 342 343 342 342 341 340 339 338 337 336 335 336 339 339 338 338 338 337 337 338 337 336 334 333 333 330 329 329 330 330 331 332 332 331 331 331
354 354 355 358 359 357 357 358 360 361 361 360 360 361 362 362 362 362 362 362 362 361 361 359 357 355 353 352 352 351 351 351 352 352 350 349 347 345 344 344 342 339 339 341 341 340 342 343 341 341 341 341 341 342 341 340 339 339 337 335 336 339 339 338 338 336 336 337 337 338 337 334 332 331 329 327 327 327 328 328 329 330 330 331 331
352 355 358 359 359 359 360 363 365 364 362 361 362 363 364 363 363 362 362 362 361 361 360 358 356 354 353 352 352 351 351 351 351 350 349 347 346 345 344 344 342 340 340 342 342 342 342 340 337 336 338 340 341 342 341 341 340 338 336 334 336 339 339 338 338 336 336 336 336 336 336 334 332 330 328 326 325 324 325 326 327 328 329 328 326
358 359 359 359 361 363 363 365 365 364 363 364 364 365 365 365 363 363 363 363 361 360 358 356 354 354 353 352 352 351 350 350 350 349 347 346 344 344 343 343 343 343 342 343 343 343 341 338 336 337 339 341 342 341 340 340 338 336 334 334 335 337 338 337 337 336 335 334 334 334 333 333 333 331 327 325 324 324 324 324 324 323 323 322 321
359 359 359 360 362 363 362 363 363 363 364 365 365 365 364 363 363 363 363 362 360 358 357 355 354 354 353 352 351 350 350 349 349 347 346 345 344 343 343 343 344 344 343 343 344 343 341 340 339 339 341 341 340 340 340 338 336 335 334 334 334 334 335 335 336 335 334 333 332 332 332 332 331 330 326 324 324 323 322 322 321 320 319 318 318
357 358 359 359 360 360 360 361 361 362 362 362 363 362 362 362 363 363 361 360 360 357 355 354 353 353 353 352 351 349 349 348 347 346 345 343 342 343 343 342 343 343 342 343 344 343 341 341 339 340 341 340 339 339 339 337 335 334 333 333 333 333 333 332 332 333 333 332 332 331 331 331 330 328 326 323 322 321 320 319 318 317 317 317 318
358 359 358 358 359 359 358 358 359 360 360 361 360 360 361 363 362 359 358 358 358 356 355 353 353 352 352 351 350 349 348 347 346 344 344 343 343 343 343 342 342 342 342 343 343 342 341 341 340 340 341 340 339 338 338 336 334 333 332 333 332 331 331 330 329 330 331 331 331 330 329 329 328 325 322 320 320 319 318 317 317 317 318 320 321
360 361 360 358 358 358 357 356 356 356 357 358 358 360 361 360 356 354 354 356 355 354 353 351 352 352 350 349 349 348 347 346 345 344 344 343 343 343 342 341 341 342 343 343 340 338 339 340 340 341 341 340 339 337 336 335 333 332 331 331 331 330 330 329 329 329 329 329 328 328 328 327 325 322 320 320 322 321 319 319 319 320 321 322 322
361 361 360 359 358 357 356 354 353 352 354 355 355 356 356 353 351 352 352 352 352 351 350 350 350 350 349 349 348 348 347 346 345 345 344 342 342 342 342 341 341 342 342 341 338 337 340 340 340 340 340 338 336 335 335 335 334 333 332 331 330 329 329 328 329 329 328 328 327 326 325 323 321 319 319 321 322 321 320 320 320 320 321 321 321
362 362 361 361 360 358 355 354 352 352 352 352 352 351 350 349 350 349 349 350 350 348 348 348 348 348 348 348 348 347 346 345 345 344 343 342 341 341 341 340 340 341 341 339 338 339 340 340 340 339 338 337 336 336 336 335 334 333 332 332 330 329 329 329 329 329 328 328 326 324 323 321 321 321 322 322 322 321 321 321 320 320 320 320 319
360 361 362 361 361 359 357 355 354 352 351 350 349 348 347 347 347 347 348 349 348 347 347 347 346 346 346 346 346 346 345 345 344 342 339 338 337 339 341 340 340 340 339 338 339 341 340 339 339 337 337 338 338 337 335 334 332 331 331 330 330 329 329 329 328 328 328 327 326 325 324 324 324 324 324 323 323 322 321 320 320 320 319 318 318
357 357 359 359 359 358 358 356 354 353 351 349 348 347 346 346 346 347 348 348 347 346 346 345 344 344 344 344 344 344 344 344 342 339 336 332 332 335 339 338 337 337 338 338 339 341 340 338 336 336 336 337 337 336 334 331 328 327 326 326 326 327 327 326 326 326 325 325 326 326 326 325 325 324 324 323 322 321 321 320 320 319 317 317 316
353 354 357 357 357 357 357 356 355 353 351 349 348 347 346 346 345 346 347 346 345 345 344 343 343 343 343 343 343 343 343 342 340 337 334 331 331 334 336 336 336 336 336 336 337 338 337 336 335 335 335 334 333 332 330 327 324 323 323 323 323 323 324 325 325 324 324 325 326 325 324 324 324 323 323 322 321 321 320 320 319 318 317 316 315
Wind_Speed
17 20 21 22 21 20 19 19 19 19 19 19 20 20 20 19 19 18 18 18 18 17 17 17 16 16 15 14 14 13 12 12 11 11 10 9 9 9 8 7 8 8 8 7 7 6 5 4 2 1 2 2 2 3 4 5 4 3 3 4 4 4 4 3 3 5 5 3 3 2 1 2 2 2 0 1 1 1 1 1 1 1 1 1 1
15 18 20 22 22 22 21 19 20 20 20 21 21 21 20 20 20 19 18 18 19 18 17 17 17 16 14 14 13 13 12 12 12 11 11 10 9 10 9 8 8 8 8 8 7 6 5 4 3 2 3 2 2 3 4 4 3 2 3 4 3 2 3 3 4 4 4 4 3 2 2 3 3 1 0 1 2 2 2 2 2 1 2 1 1
15 17 19 22 23 23 22 20 21 21 21 21 21 21 20 21 21 20 19 19 20 19 18 17 16 15 14 12 12 12 12 12 11 10 10 10 10 10 10 10 10 9 8 8 7 7 6 5 4 3 3 2 2 3 3 3 2 2 3 3 2 1 1 2 4 5 5 5 3 2 0 1 3 2 1 2 2 2 3 4 3 3 3 2 2
16 17 18 21 23 24 23 22 21 21 21 21 21 21 21 21 21 21 21 20 20 20 19 18 16 15 14 12 11 11 11 10 11 11 11 10 10 10 10 10 11 10 8 7 7 7 7 6 4 3 3 2 2 3 3 3 3 3 2 2 2 2 1 1 3 5 6 5 3 2 2 1 1 1 2 1 1 1 3 5 5 4 4 3 3
17 18 18 19 22 24 24 23 22 22 22 22 22 22 21 21 22 21 21 21 20 20 20 18 17 16 16 14 12 11 11 10 11 12 11 11 11 10 10 10 10 9 8 8 7 7 7 6 5 4 3 3 2 3 2 2 2 2 2 1 1 3 2 2 2 3 4 4 4 3 2 1 2 3 3 1 1 2 3 5 6 4 5 4 3
17 18 18 19 22 24 25 24 23 23 23 23 22 22 21 21 22 22 21 21 21 20 20 19 18 18 17 16 14 12 12 12 12 12 11 11 10 9 9 9 10 9 9 8 7 7 7 6 5 4 4 3 3 3 2 2 2 2 2 1 1 1 2 2 1 1 2 3 4 4 3 3 4 5 3 1 2 3 3 5 6 5 5 4 4
16 17 18 19 22 24 24 25 25 24 24 23 22 22 22 21 21 22 21 20 20 21 21 21 19 18 18 17 15 14 13 12 12 11 11 10 9 8 8 9 9 9 8 8 8 8 7 7 6 5 5 4 4 3 2 2 2 2 2 1 1 1 0 1 1 1 1 2 3 4 4 4 5 5 4 2 1 2 2 4 6 5 4 5 4
16 17 18 19 21 24 25 26 26 26 25 23 22 22 22 22 21 22 21 20 20 21 22 22 20 19 18 17 16 15 14 13 12 11 11 10 9 8 8 8 8 8 8 9 9 9 8 8 8 6 6 6 5 4 3 2 2 2 2 2 2 2 1 1 1 2 2 2 2 2 3 4 4 4 4 4 2 0 1 3 4 3 3 5 5
17 17 18 19 22 25 26 26 26 26 26 24 23 22 22 22 22 22 21 20 20 20 21 22 21 19 18 18 17 16 15 14 13 12 11 10 9 9 8 8 9 9 10 10 10 10 10 9 8 8 7 7 6 5 4 3 3 3 3 3 3 2 2 1 1 1 2 2 1 1 1 1 2 2 2 3 3 2 0 2 2 1 1 3 3
17 18 18 20 24 26 27 27 27 27 26 25 23 22 22 22 22 22 22 20 20 21 21 22 21 20 19 19 19 17 16 15 13 12 11 11 11 11 10 10 10 10 11 11 11 11 10 9 9 8 8 7 6 5 4 4 4 4 4 4 3 3 3 2 2 1 1 1 0 0 1 1 1 1 2 2 2 2 3 2 1 1 1 1 2
17 18 18 21 25 27 27 26 27 26 26 25 24 23 23 22 23 23 23 21 20 21 22 22 22 21 20 20 20 19 18 16 14 14 13 13 12 12 12 12 11 11 10 11 12 11 10 9 9 8 8 8 7 6 4 4 4 5 5 5 4 4 4 3 3 2 2 1 1 1 1 2 1 1 2 2 3 3 3 4 4 3 3 2 2
17 17 17 19 21 24 26 26 26 26 25 25 25 24 23 23 23 24 24 23 22 22 23 23 22 22 21 21 21 21 19 18 17 16 16 15 14 12 12 12 11 11 11 11 12 12 11 10 9 9 9 8 7 6 5 5 5 5 5 6 5 5 5 4 4 4 3 3 2 3 3 2 2 2 1 1 3 4 4 5 5 4 4 4 2
17 16 17 17 17 19 23 25 25 24 25 25 25 25 23 23 24 24 25 24 23 23 23 24 23 22 22 22 21 21 20 20 19 18 17 16 14 13 12 12 12 12 12 12 12 12 11 10 9 9 9 9 8 8 7 6 6 5 6 6 6 6 5 5 4 4 4 3 3 3 3 3 3 3 3 3 3 3 4 5 6 5 6 6 4
17 16 16 16 16 17 21 24 24 24 26 26 26 25 24 23 24 25 25 25 24 24 24 25 25 24 23 22 21 21 21 21 20 19 17 15 13 14 14 13 13 13 13 13 12 11 11 10 10 10 10 10 10 9 8 8 7 6 6 6 6 6 5 5 4 4 4 4 4 4 4 5 4 4 4 4 4 4 5 5 6 6 8 8 7
17 17 17 17 18 20 22 24 25 25 27 27 26 26 24 23 24 25 25 25 25 25 25 25 26 25 24 23 22 21 20 20 20 19 17 15 14 14 15 14 13 12 13 13 12 11 11 10 10 10 10 11 10 10 9 8 8 7 6 6 6 5 5 5 5 5 5 5 5 5 5 6 6 5 5 5 5 5 5 6 6 6 6 7 7
18 17 18 19 19 22 24 24 25 25 26 27 26 26 26 24 24 26 26 26 26 25 26 26 26 25 25 24 23 21 20 19 19 18 17 16 15 14 14 14 13 12 12 12 11 11 11 10 10 10 10 11 10 10 9 8 8 8 7 6 6 5 5 5 5 5 5 6 6 7 7 7 7 6 6 6 6 5 5 6 6 6 6 6 6
18 17 18 19 20 22 25 26 26 26 26 27 27 28 29 27 25 26 26 25 26 27 27 26 25 25 25 24 23 21 20 19 18 17 17 16 15 15 14 14 13 12 11 11 12 12 11 10 10 10 10 10 10 10 9 8 8 8 8 7 7 6 6 6 6 6 6 6 7 8 8 8 7 7 7 7 6 6 6 7 7 8 8 7 5
18 19 19 19 19 21 25 27 27 28 28 29 30 29 29 28 27 27 27 27 27 27 27 26 25 25 24 24 23 21 20 18 17 16 16 16 15 14 13 13 13 12 11 11 11 11 11 11 10 10 10 10 10 10 9 9 8 8 8 8 8 7 7 7 7 7 7 7 8 8 9 9 8 8 8 7 7 7 7 8 8 8 9 9 8
17 18 17 17 18 21 25 27 28 28 28 29 30 29 27 27 27 27 29 30 29 27 25 25 24 24 23 23 23 21 19 18 16 16 17 17 16 14 13 13 12 12 12 12 11 11 11 11 11 11 11 10 10 10 10 9 9 8 8 8 8 7 7 7 7 7 7 7 8 9 9 10 9 9 9 8 7 7 7 8 8 9 9 11 11
16 17 17 18 19 23 28 29 28 29 28 28 29 28 28 28 27 28 28 29 28 26 25 25 24 23 21 21 21 20 19 18 17 18 18 17 16 15 14 13 13 13 13 12 12 12 12 12 12 12 12 11 11 11 10 9 9 9 8 8 7 7 7 7 7 7 7 7 8 9 10 10 10 10 9 9 8 8 8 8 8 9 10 10 12
16 16 17 18 19 22 27 29 28 28 27 28 28 28 29 29 28 29 28 27 28 27 26 25 24 23 21 20 21 21 21 19 18 19 18 16 17 18 17 15 14 14 14 14 14 14 14 13 13 12 12 12 11 11 10 10 10 9 9 8 8 8 8 8 7 7 8 8 8 9 10 11 11 11 11 11 10 9 9 9 9 9 10 10 10
16 15 15 16 16 18 22 25 25 26 27 27 27 27 28 29 28 28 28 28 28 27 26 24 23 22 22 22 23 23 21 20 20 21 20 19 21 22 20 18 17 17 16 16 15 15 15 15 14 13 13 12 12 12 11 10 11 10 10 10 9 9 10 9 9 9 9 9 10 11 11 10 11 11 11 11 11 10 10 10 9 9 11 11 10
14 15 14 14 14 15 19 22 24 25 25 26 26 26 27 28 28 27 28 29 28 27 25 23 23 24 25 26 26 24 23 21 23 25 24 22 23 23 23 23 21 19 19 19 18 17 16 16 15 14 14 14 13 13 12 12 12 12 11 11 11 11 11 11 11 11 12 11 12 12 12 11 11 11 12 11 11 10 9 9 9 9 11 12 11
12 13 13 12 13 14 16 18 21 23 24 25 26 25 26 26 27 27 28 29 28 26 24 23 25 27 29 30 26 24 25 25 25 26 24 22 20 20 22 24 22 20 20 20 19 18 17 17 16 15 15 15 15 14 14 13 13 13 13 13 13 12 12 13 13 13 14 14 13 14 13 11 11 11 12 11 11 10 10 9 9 9 11 12 12
11 12 12 13 13 14 14 14 18 21 23 23 25 25 25 25 26 26 26 27 27 25 24 25 27 29 31 33 29 26 26 25 24 25 25 23 19 18 19 23 24 22 21 21 21 20 20 20 19 18 17 17 16 15 15 15 14 14 14 15 14 14 14 14 15 15 15 15 15 15 14 12 12 12 12 12 11 11 11 10 10 10 11 12 12
11 12 13 13 13 13 14 14 17 21 22 22 24 25 24 24 26 26 25 24 24 25 26 27 28 28 31 32 29 26 26 26 27 28 27 26 26 26 26 27 29 28 26 25 24 23 23 24 23 21 18 17 17 17 16 16 16 15 15 15 15 15 15 15 16 16 15 15 15 15 15 14 13 13 13 13 13 12 12 12 12 12 12 13 13
11 12 12 13 13 14 16 15 18 21 22 22 23 24 24 24 25 25 23 22 23 26 27 28 28 27 27 27 26 26 27 30 33 34 31 30 32 32 31 32 33 31 29 27 25 24 25 26 25 24 21 18 17 18 18 17 17 16 16 16 16 16 16 16 16 16 15 15 16 16 16 15 15 15 15 15 14 14 14 13 13 13 13 14 14
11 12 13 15 15 15 16 16 18 21 22 22 22 23 23 23 22 22 21 21 22 25 26 27 26 24 23 23 24 29 35 37 36 37 36 36 37 36 34 35 33 29 27 26 24 24 24 24 24 24 23 21 18 18 18 18 18 18 17 17 16 16 16 16 16 16 15 15 15 16 16 16 16 16 16 16 15 14 14 13 14 14 14 15 15
13 14 15 15 15 15 16 16 17 20 22 21 21 22 22 21 20 21 21 21 21 23 24 24 23 21 21 22 24 31 39 40 36 38 40 40 40 40 38 36 34 31 28 25 23 22 22 22 24 25 25 24 20 19 19 20 19 18 17 16 17 16 16 16 16 16 15 15 16 16 16 16 17 17 18 19 18 17 16 15 15 14 15 16 16
14 15 15 15 15 15 16 16 17 19 21 21 21 21 22 21 21 21 22 22 21 22 23 23 22 21 22 25 26 28 36 39 38 39 42 42 41 40 37 37 36 32 28 26 24 21 20 21 24 26 26 25 22 20 21 22 21 20 17 15 15 15 15 16 16 16 16 16 16 16 16 16 18 20 21 22 22 21 20 20 19 19 18 18 17
14 14 14 14 15 15 16 17 17 19 22 22 21 21 21 21 21 22 23 23 22 23 24 22 21 22 25 28 27 26 33 40 41 39 41 42 40 36 34 36 36 31 28 27 25 22 20 20 21 22 24 24 23 21 22 24 25 24 21 17 15 15 15 16 16 16 16 16 16 16 15 15 17 20 21 21 21 21 21 22 22 22 21 21 19
13 14 14 15 17 17 18 18 18 20 22 22 21 21 21 21 22 21 22 23 22 23 23 21 23 25 27 29 28 26 29 37 41 40 38 36 33 29 29 31 32 31 29 26 24 23 21 20 19 20 21 21 22 21 22 24 24 23 22 19 17 16 16 16 16 16 16 16 16 16 15 15 16 17 18 18 18 19 21 23 23 21 20 20 21
12 13 15 16 17 16 16 17 18 20 22 22 21 21 21 21 21 20 21 22 22 22 22 22 25 27 28 28 27 26 27 31 38 39 32 27 26 25 26 26 27 30 30 28 28 26 22 21 20 20 20 18 17 18 20 22 22 22 20 19 19 19 17 17 17 16 16 17 18 18 17 16 16 16 17 18 17 17 19 21 21 19 18 18 20
11 12 14 14 13 13 15 17 19 20 20 20 20 19 18 19 20 19 20 21 21 21 22 24 26 27 27 27 26 27 28 29 33 34 28 25 25 25 25 25 25 26 27 27 29 25 21 22 22 20 18 17 16 17 19 20 20 22 22 21 21 21 19 18 18 17 18 18 19 19 18 18 18 17 16 16 15 15 15 16 16 15 15 15 15
11 12 12 13 13 13 14 17 19 19 19 19 18 17 17 18 19 19 20 20 20 20 21 24 26 26 26 25 25 28 28 27 29 29 25 24 25 24 23 23 21 21 21 22 23 20 18 20 20 18 16 15 16 18 20 19 19 21 22 22 22 21 19 19 18 18 19 20 20 20 20 20 19 17 16 16 16 14 13 14 14 14 14 13 13
11 12 12 14 15 16 17 18 19 19 19 19 19 19 19 19 19 19 19 19 19 20 21 22 24 24 24 24 25 27 27 26 28 29 25 24 25 25 22 20 17 17 18 18 18 18 18 18 17 15 15 14 15 16 18 18 18 20 21 21 22 21 19 19 19 20 21 20 20 19 17 17 17 16 17 20 21 19 16 16 16 15 13 13 15
12 13 14 16 17 18 19 20 20 20 20 19 19 20 19 19 19 18 19 19 18 19 20 21 22 22 22 24 25 26 26 26 27 28 27 26 27 25 21 20 19 18 18 18 17 17 18 17 15 14 14 14 14 16 17 18 18 19 19 20 20 19 17 18 19 20 21 20 19 17 16 19 20 19 18 20 23 22 19 17 16 14 13 14 16
12 13 15 18 20 20 20 20 20 20 19 20 21 21 20 19 18 18 18 18 17 18 18 19 21 21 21 23 25 26 26 25 25 27 27 27 27 25 21 19 20 19 18 17 16 16 16 14 13 12 13 14 15 14 14 16 17 17 17 18 17 15 15 16 17 18 19 19 19 19 22 24 25 23 23 24 24 22 18 16 15 14 13 15 15
13 15 17 18 20 21 20 19 19 19 20 21 22 22 20 18 17 16 16 15 16 17 17 18 20 21 20 22 24 25 25 24 24 25 25 24 24 22 19 17 18 19 17 15 17 19 16 12 10 10 12 14 14 13 13 15 15 15 15 16 14 14 15 15 15 17 19 18 17 18 22 24 22 22 24 25 23 20 17 15 15 14 15 15 13
13 16 19 19 20 21 21 20 19 19 20 22 22 20 18 17 16 15 14 14 14 15 16 17 18 19 19 21 23 24 24 22 22 22 22 22 20 18 17 16 17 19 18 16 17 19 15 10 7 6 9 12 13 12 12 13 13 13 13 13 12 13 14 14 15 17 18 17 17 16 17 20 19 17 19 21 21 19 17 15 15 14 14 13 12
13 16 18 19 19 20 20 19 19 19 20 20 20 19 18 17 16 15 13 12 12 13 14 15 16 17 18 20 21 22 22 21 20 19 19 19 17 16 16 16 16 18 20 19 18 16 11 8 6 6 10 12 11 9 9 10 11 11 10 10 10 11 12 13 15 16 17 17 16 14 14 16 16 14 14 16 18 17 16 14 14 14 14 14 14
17 17 18 19 19 19 20 19 18 19 19 18 19 19 18 17 15 13 12 11 12 13 13 14 15 15 17 19 19 19 19 18 17 18 17 16 14 14 16 17 16 18 20 20 17 13 8 6 4 6 8 9 10 9 8 9 10 9 8 8 9 10 11 13 14 16 17 16 15 14 12 12 13 13 12 13 15 15 16 15 15 15 16 16 17
18 18 18 18 18 17 18 17 17 16 16 17 18 18 17 16 15 13 12 13 13 13 14 14 15 15 16 18 19 19 18 16 17 18 18 16 14 14 16 18 17 18 19 18 13 11 9 6 4 5 6 7 9 8 6 6 8 9 9 10 11 12 13 13 13 15 16 16 15 13 11 11 12 12 12 12 14 15 15 14 14 15 15 16 16
17 18 19 19 17 17 17 16 14 14 13 13 15 16 16 15 15 14 14 14 14 14 14 14 15 15 16 17 19 20 19 17 17 18 16 16 16 15 17 20 19 17 17 14 11 10 9 7 4 5 7 8 7 5 4 5 8 9 9 10 12 12 13 14 14 14 15 14 14 12 10 11 12 12 12 12 13 13 12 12 13 14 15 14 12
18 18 19 18 18 19 18 17 14 14 14 12 12 14 15 14 13 13 13 13 14 14 14 13 13 14 15 15 16 18 18 17 18 19 16 15 15 15 17 20 19 16 13 11 9 8 6 4 5 7 8 8 6 4 4 7 9 8 9 10 11 12 13 14 14 14 13 14 14 13 13 13 13 12 11 10 10 11 12 13 14 13 11 9 7
17 17 18 18 18 17 17 17 15 13 14 12 11 13 14 13 11 11 10 10 11 12 11 11 10 11 12 13 14 15 16 17 18 18 17 15 14 15 16 18 18 15 13 10 9 7 5 6 7 8 7 6 5 5 7 8 6 4 6 9 10 12 13 14 14 15 15 17 18 16 14 14 13 10 9 8 9 10 8 8 7 5 5 6 7
15 15 16 17 16 14 15 15 13 12 12 12 11 12 13 12 11 11 10 11 11 11 11 10 9 9 11 12 13 13 14 15 15 14 14 15 15 15 16 17 17 15 12 11 10 9 9 8 7 6 6 6 7 9 10 9 6 4 5 6 7 8 9 9 10 11 11 13 15 14 12 11 10 8 7 7 8 7 4 2 2 2 4 7 8
15 15 15 16 16 15 14 14 13 11 11 12 12 12 12 12 11 11 12 12 12 12 12 10 9 9 9 10 12 12 12 13 13 12 11 11 13 14 15 14 13 12 12 11 11 11 11 9 8 8 9 10 12 11 9 9 8 6 6 6 5 6 6 6 7 8 6 6 7 7 8 10 10 8 7 6 5 4 4 4 5 6 7 8 8
14 14 15 16 16 15 15 14 12 11 11 12 12 11 11 11 11 11 12 13 13 12 11 10 9 9 9 9 10 11 11 10 10 12 11 8 6 8 11 11 11 10 11 11 11 10 10 10 10 11 12 11 11 10 10 11 10 9 10 10 8 7 7 6 8 9 8 7 7 8 10 11 11 10 9 8 7 6 6 7 7 7 8 9 9
14 14 16 16 15 15 15 14 12 11 11 11 11 11 10 10 10 11 12 13 13 11 10 9 9 9 10 11 11 11 11 9 10 12 10 7 6 6 7 10 10 11 11 12 11 11 11 11 10 12 13 10 7 8 11 11 11 10 11 10 9 9 9 8 8 9 8 9 10 12 13 12 11 10 9 8 6 6 7 7 7 7 7 9 10
14 14 14 14 14 14 14 13 11 10 11 11 11 10 9 9 10 10 11 12 12 9 9 9 8 8 9 11 12 12 11 10 9 10 10 9 9 8 7 7 8 10 11 12 12 12 13 14 11 11 13 11 8 9 10 9 8 8 8 7 6 6 8 10 8 7 7 9 12 13 13 11 9 8 7 6 6 6 7 7 8 8 8 9 10
Wind_Direction
197 196 198 198 198 197 197 198 199 199 201 201 201 202 201 200 201 201 201 203 205 206 206 209 212 214 216 218 220 219 219 220 223 227 230 232 230 227 229 228 230 234 241 247 241 236 244 242 234 247 267 269 284 300 305 309 306 294 279 278 282 293 299 299 323 319 300 310 321 292 199 196 193 171 140 83 97 127 133 122 126 132 124 132 129
197 194 196 198 199 197 197 198 199 199 199 200 201 202 202 201 203 203 201 202 206 208 208 210 212 214 216 218 220 219 217 220 226 230 233 234 230 232 235 230 229 235 242 246 239 227 226 224 218 228 243 253 284 299 299 297 291 281 279 279 280 303 316 322 347 329 308 336 338 292 150 150 169 180 23 64 85 106 113 98 77 62 47 17 360
197 196 195 198 200 198 197 198 200 201 199 200 201 202 203 204 206 207 206 206 208 210 210 212 212 212 215 216 217 220 223 226 231 234 235 236 233 236 239 232 231 239 241 236 229 222 219 215 214 224 231 237 281 293 287 278 273 269 273 283 285 273 290 341 358 348 337 338 318 268 212 157 168 203 315 60 91 102 100 81 53 40 44 24 360
198 198 198 198 200 200 199 198 200 201 200 199 200 201 203 205 206 207 208 209 209 210 211 212 212 210 211 213 216 224 229 230 233 235 236 237 238 239 238 234 235 240 236 227 221 221 216 209 214 219 216 224 266 275 264 257 254 251 258 278 298 293 306 38 10 1 354 340 323 307 280 240 150 77 16 58 100 106 85 64 48 45 49 33 15
199 201 201 198 199 200 200 199 200 201 201 200 199 200 202 203 203 204 206 209 210 209 208 209 210 209 209 214 221 227 229 228 229 231 232 234 237 236 232 231 235 237 233 226 219 217 211 207 212 211 211 222 237 241 244 256 255 250 252 250 293 317 346 24 24 14 1 349 346 338 295 285 23 14 12 16 23 49 68 62 58 58 53 40 22
202 203 204 201 200 200 199 199 200 202 202 202 201 201 201 202 201 201 204 207 209 209 208 207 210 211 210 212 216 218 220 221 224 228 229 229 232 232 227 227 232 234 231 223 213 210 208 204 204 206 213 214 210 218 228 247 249 245 245 239 257 335 345 341 32 52 7 360 4 356 341 349 355 341 333 13 68 75 87 89 86 73 61 60 47
204 204 205 204 202 200 200 200 201 203 203 201 202 201 201 201 199 199 202 205 207 208 208 208 209 211 210 210 212 211 214 218 220 227 230 229 230 230 229 230 229 228 227 220 212 210 208 206 204 205 210 202 195 209 221 233 237 235 230 220 221 167 191 308 343 18 9 20 14 1 350 354 358 343 333 347 82 92 76 93 100 94 90 87 73
205 204 204 204 203 202 202 201 203 205 203 201 201 201 200 199 197 198 201 203 205 205 206 207 208 208 207 209 212 213 216 218 216 218 224 225 227 232 236 232 225 222 222 217 211 211 211 209 204 201 202 197 195 205 213 222 226 225 221 205 209 205 197 250 331 331 326 37 34 5 360 3 5 357 343 332 323 36 119 117 108 108 111 94 85
206 204 204 203 203 203 204 203 204 205 205 203 202 201 200 198 197 197 200 202 202 202 203 206 207 206 205 207 210 214 218 220 218 219 221 222 227 234 235 229 222 219 216 212 210 210 206 202 200 200 201 198 198 204 205 213 218 216 216 210 210 210 208 218 237 297 318 16 55 26 8 349 344 350 330 311 316 322 253 132 113 150 136 90 91
207 207 204 203 204 204 205 205 205 206 206 205 203 202 200 199 197 197 199 200 199 200 201 204 206 205 206 208 210 213 216 219 222 221 219 221 227 229 226 222 218 214 212 210 206 203 198 199 202 204 203 201 201 206 208 212 216 216 219 218 213 213 210 210 224 247 301 360 70 32 319 274 262 285 282 299 321 310 294 294 267 215 212 138 134
206 208 206 204 204 204 205 205 205 205 204 203 202 202 201 200 199 199 200 199 197 199 201 202 204 207 209 211 212 214 215 218 220 219 217 218 222 223 220 218 216 216 214 208 201 197 198 203 207 206 205 203 202 207 215 220 218 216 219 217 208 210 210 203 210 214 205 207 199 199 252 290 309 303 308 329 316 298 299 299 299 322 314 243 181
202 204 206 204 203 203 204 204 204 202 200 200 201 202 201 200 198 199 200 199 197 198 201 202 203 206 210 212 215 216 217 217 216 218 218 217 220 223 220 218 220 218 211 202 200 201 202 204 207 207 205 204 204 205 214 223 222 216 217 218 208 204 207 207 212 214 209 213 213 211 226 246 249 257 282 272 274 295 306 297 299 315 299 262 218
199 201 203 202 201 201 201 201 199 198 197 198 200 202 201 199 198 199 200 199 198 198 200 202 203 206 209 212 215 216 217 217 216 218 218 216 219 222 221 222 220 213 205 203 206 205 203 203 205 206 205 204 204 205 212 218 218 217 219 219 212 207 210 215 225 228 223 225 229 226 232 240 233 224 229 234 245 261 263 279 299 306 292 286 284
198 199 200 200 199 197 198 197 195 195 195 196 199 200 200 198 198 199 200 199 198 198 200 202 204 207 209 211 212 213 215 216 217 220 219 214 214 218 223 225 218 210 206 207 208 206 205 207 207 207 206 203 202 206 213 214 213 215 219 222 219 218 221 226 235 239 235 236 239 240 244 250 249 234 227 239 254 259 263 285 305 302 293 291 287
198 197 198 198 196 195 196 194 193 194 195 196 198 197 197 197 196 198 200 199 198 199 200 202 205 207 209 210 210 211 212 213 216 220 218 213 211 213 218 221 217 213 211 208 207 205 205 207 208 209 206 202 204 208 210 210 210 211 216 221 224 223 225 230 239 243 242 240 238 243 251 255 260 259 249 251 262 271 281 295 301 295 293 294 293
198 197 198 196 193 194 195 194 195 196 196 197 196 194 196 196 196 199 200 199 198 199 201 203 205 206 208 209 208 208 207 208 212 212 211 212 211 208 211 215 215 214 209 205 203 203 205 207 209 211 207 204 207 208 208 208 206 210 214 218 223 224 224 229 236 242 245 246 243 243 250 257 262 266 266 266 269 273 280 286 286 284 289 294 295
197 198 197 195 192 193 195 196 196 196 197 197 194 194 195 195 195 198 199 198 198 200 203 204 204 205 207 208 207 205 202 202 205 204 203 206 207 206 213 220 218 214 207 204 203 203 205 206 210 213 210 209 210 207 208 206 204 210 214 215 219 220 224 232 238 242 245 247 248 247 250 257 262 263 266 269 266 266 270 274 275 277 282 288 290
197 198 198 196 193 193 195 197 197 196 195 194 193 194 195 195 195 195 197 198 199 201 202 203 202 203 205 207 206 204 202 202 202 200 198 201 203 205 213 221 217 211 206 204 203 203 205 208 213 216 213 211 212 210 208 206 207 213 214 215 218 219 226 233 238 245 250 249 250 252 254 258 260 260 265 267 262 258 260 266 270 273 276 279 284
197 199 200 198 196 195 196 198 198 197 194 191 193 194 194 196 196 196 198 199 200 200 200 201 201 202 204 205 204 202 201 201 197 196 199 203 204 204 210 216 213 208 205 203 203 205 208 210 213 217 217 213 211 211 211 208 209 217 218 218 218 217 224 233 238 245 251 253 254 255 257 259 260 262 265 265 261 257 260 265 268 269 270 272 277
199 199 199 199 199 198 197 197 197 196 193 192 194 194 195 196 196 197 198 199 199 198 196 198 198 200 201 199 198 198 198 196 194 198 203 204 204 203 207 211 207 204 203 202 205 208 209 211 215 218 218 215 212 213 213 211 213 219 221 222 218 216 225 236 242 247 251 256 260 262 262 261 260 261 262 261 258 258 262 267 269 270 270 268 270
199 201 203 201 201 201 199 197 195 193 192 193 195 195 196 197 197 198 198 197 198 197 196 196 195 196 195 192 193 195 195 192 191 199 202 199 202 207 208 207 203 203 203 201 204 208 209 212 215 218 218 216 215 215 214 213 215 218 219 222 222 223 232 240 245 251 254 257 261 264 265 264 261 259 259 259 259 260 263 265 267 270 271 269 268
201 202 206 204 202 202 199 196 193 193 193 194 196 195 196 197 198 199 199 199 199 197 195 192 190 190 190 191 193 191 189 187 188 199 203 200 206 214 215 209 201 202 206 203 201 206 210 211 212 214 215 215 215 217 216 214 216 219 221 225 227 229 236 243 248 253 255 257 259 260 263 265 264 260 257 258 261 263 265 265 265 268 271 272 269
203 202 206 205 201 198 194 193 194 194 194 193 194 196 196 197 197 198 199 201 201 197 192 186 185 188 191 194 192 186 183 185 192 204 206 202 207 215 217 214 208 206 211 211 204 204 210 211 210 211 211 212 216 217 217 217 219 222 225 229 233 235 240 246 251 255 258 260 261 261 263 265 266 263 258 256 259 262 261 261 264 268 271 273 271
203 203 207 204 196 191 189 190 191 192 192 191 192 194 195 196 197 198 199 200 200 196 187 182 185 190 193 195 190 181 183 187 194 204 206 203 205 210 214 219 216 209 211 215 211 207 209 209 208 210 210 212 216 218 219 220 221 225 230 234 238 240 245 251 255 259 261 262 263 262 263 263 264 264 260 257 256 257 256 255 260 264 265 268 270
199 202 205 201 194 188 185 185 186 187 188 189 191 192 193 195 197 199 200 199 196 192 185 185 190 191 192 195 190 182 184 188 192 200 204 200 198 203 215 223 221 213 212 220 221 217 214 214 215 214 212 213 217 219 221 222 225 229 233 238 242 246 250 253 257 261 263 263 262 261 262 261 260 261 260 258 255 253 254 254 256 259 263 267 269
197 200 200 198 194 186 182 182 182 183 185 186 189 191 193 195 198 199 200 196 192 190 188 189 192 190 190 193 189 179 181 189 196 202 201 195 195 205 217 223 221 215 214 217 221 223 222 223 224 220 214 215 219 221 223 224 228 232 236 241 246 249 253 256 260 262 262 262 260 259 258 256 255 257 258 257 255 252 252 254 256 259 264 268 269
193 195 195 195 192 185 182 181 180 181 184 185 187 191 193 195 197 198 197 192 189 189 189 188 191 192 192 190 181 177 186 197 204 207 202 197 202 209 215 219 218 214 212 213 215 221 225 226 227 224 220 218 218 222 225 227 230 235 240 244 248 252 255 258 259 260 261 261 259 255 253 250 248 251 254 255 256 254 252 253 255 260 265 269 272
188 191 194 194 193 188 185 184 181 182 184 185 188 191 192 194 195 194 193 191 189 189 189 189 191 195 196 189 180 187 202 208 208 209 207 205 208 211 212 217 216 212 212 213 212 215 220 222 223 224 224 221 220 223 227 229 234 238 241 245 250 254 256 257 257 257 258 259 257 253 251 248 247 248 249 251 253 253 254 255 259 264 269 273 276
190 192 195 196 196 192 187 185 182 182 184 185 187 189 190 190 191 191 192 192 188 186 188 190 189 189 195 192 186 196 208 211 208 209 211 210 210 211 212 213 212 210 211 212 209 210 213 216 220 225 228 227 224 226 229 231 233 236 241 248 252 253 254 254 254 255 255 256 254 253 252 250 248 245 246 250 254 255 257 260 264 269 272 276 278
197 195 195 195 197 195 187 183 182 183 184 185 185 187 187 188 188 189 191 190 186 185 188 189 186 184 192 197 194 197 206 210 211 212 213 212 211 211 210 210 209 208 208 209 207 205 206 212 219 225 230 231 228 229 233 233 233 236 243 251 254 253 253 252 253 255 257 257 254 253 254 252 248 247 250 256 260 260 259 261 265 269 271 273 275
202 195 193 192 194 193 185 182 183 184 183 183 183 184 184 187 188 188 188 187 185 184 188 189 184 184 193 197 196 197 204 209 213 214 214 213 212 210 208 208 207 204 205 209 209 206 207 211 215 220 227 231 232 233 234 237 240 244 249 253 255 254 253 252 253 255 256 259 258 257 257 256 252 252 255 259 261 262 263 265 268 270 270 267 265
202 194 190 190 191 189 185 183 183 183 182 181 179 179 181 186 187 186 185 185 184 183 183 185 185 188 196 196 193 198 205 208 212 215 214 212 210 207 206 205 204 203 203 206 208 210 213 213 212 215 220 226 232 235 237 241 245 246 249 252 252 252 255 255 254 256 258 260 261 260 261 261 256 253 254 257 262 265 269 273 274 274 273 266 258
201 192 190 191 191 189 184 181 180 182 182 180 178 178 181 184 183 182 182 183 184 183 182 186 191 194 198 196 194 201 208 210 213 215 213 210 208 205 204 201 200 201 202 204 209 214 219 219 217 218 218 220 228 234 239 246 248 245 246 249 248 248 252 255 255 259 261 260 262 262 263 263 260 256 255 257 260 261 265 271 274 276 277 271 263
204 197 194 190 186 182 177 177 181 183 182 180 179 178 178 178 178 179 180 181 183 184 184 191 196 197 196 195 196 204 210 213 214 213 210 209 208 206 203 201 200 198 197 203 209 213 219 223 223 222 220 221 227 233 241 251 253 246 244 248 249 246 248 254 257 259 260 261 263 263 262 264 264 261 258 257 257 256 258 262 264 267 270 270 267
203 196 190 181 175 173 172 174 179 179 176 175 175 173 170 171 173 175 176 178 179 180 185 193 195 193 193 196 200 206 211 215 215 213 209 209 210 209 202 198 197 193 193 200 203 205 215 223 221 217 218 222 228 235 245 256 259 250 246 249 250 246 247 254 256 257 259 261 262 262 264 267 267 264 260 257 254 254 258 258 257 258 260 260 261
196 187 181 177 173 170 167 167 169 169 168 168 169 168 168 168 171 173 174 175 178 180 185 192 191 187 191 199 204 207 212 216 215 214 213 211 214 213 201 191 191 191 192 198 199 203 215 221 215 212 218 227 234 239 249 261 264 255 250 251 249 246 248 253 256 259 262 262 263 263 262 263 267 269 264 259 257 257 257 257 256 255 255 260 265
188 181 176 173 169 165 161 158 158 160 162 163 164 166 165 166 169 171 174 176 179 181 184 188 187 186 193 202 206 209 213 216 215 216 216 216 218 215 202 192 193 195 195 196 198 205 214 214 211 214 223 235 243 244 251 263 266 258 252 250 246 244 246 251 257 263 265 263 262 257 252 257 266 267 262 261 266 266 260 255 255 254 252 259 265
183 174 168 164 160 155 152 153 155 158 160 161 162 162 160 162 167 170 174 177 181 183 182 183 185 188 195 203 207 211 214 216 217 218 218 216 217 213 203 192 191 193 195 192 194 208 214 207 208 221 232 243 251 251 253 262 265 260 254 248 242 242 247 251 259 264 265 266 263 257 258 264 266 262 260 265 269 266 258 253 255 257 258 261 266
165 159 157 157 152 147 148 154 156 156 158 158 158 157 156 158 163 167 171 177 182 184 183 184 185 188 196 205 208 211 215 217 220 220 218 215 212 207 200 191 188 193 197 192 196 209 213 204 206 224 238 249 259 264 264 264 264 264 257 245 237 243 251 256 263 266 265 266 264 261 266 271 269 265 266 269 268 261 254 252 255 259 263 265 268
159 155 152 150 147 145 149 154 153 152 154 154 153 152 151 152 157 162 169 176 181 183 183 183 184 190 198 204 207 211 216 220 222 221 218 213 207 199 195 193 192 197 201 200 201 205 202 187 189 229 262 270 274 277 272 265 262 264 259 242 233 243 255 262 267 268 267 266 263 261 265 270 273 275 273 269 264 258 254 256 259 262 265 266 269
147 144 142 140 141 143 144 143 143 145 148 149 149 145 143 146 152 157 166 172 174 176 178 180 185 194 200 203 206 211 216 221 223 220 214 207 200 194 195 199 199 198 198 197 198 198 190 177 194 259 287 288 282 276 271 266 263 264 259 242 233 243 259 267 270 269 269 269 267 264 264 265 269 276 275 266 261 258 255 256 256 257 259 263 269
124 127 133 134 135 134 131 130 134 139 143 145 144 139 138 143 147 152 158 159 160 167 174 178 186 194 199 203 208 211 215 221 221 215 207 197 187 191 203 208 208 204 200 195 191 186 173 165 206 258 276 276 268 262 262 262 262 264 265 257 250 251 256 264 272 275 273 274 274 273 272 265 260 265 271 264 258 258 257 255 254 255 260 264 269
118 123 128 126 122 120 119 121 126 131 136 140 137 132 134 139 140 143 148 150 155 164 170 176 185 191 195 202 208 211 215 218 215 208 202 192 184 193 207 210 208 203 198 191 178 162 153 154 189 251 259 251 248 248 248 254 262 268 272 268 263 256 250 251 261 270 273 276 278 277 272 261 256 264 271 264 256 255 254 254 256 260 266 272 276
111 113 116 114 111 110 108 107 112 117 122 127 128 128 132 135 136 141 147 150 157 162 166 175 184 188 194 201 205 210 215 214 209 205 197 187 188 198 205 206 204 197 189 181 164 151 153 162 188 229 237 229 224 225 243 265 267 265 262 260 259 254 247 244 248 258 269 278 282 280 267 257 261 270 269 257 248 247 248 253 260 265 271 277 279
104 106 110 111 112 114 113 110 109 108 108 112 120 127 129 128 131 140 147 152 156 160 166 175 181 187 196 199 201 208 214 213 212 208 192 181 190 200 201 201 199 190 179 168 149 139 146 176 204 216 213 201 189 191 236 256 258 254 247 245 245 242 241 242 243 247 256 263 268 272 269 266 269 269 261 251 247 250 253 256 262 268 269 269 267
100 105 109 111 110 111 111 108 105 101 103 108 116 121 121 120 124 134 142 145 149 155 162 169 173 182 193 198 201 205 208 211 215 210 195 188 196 199 195 196 194 184 169 152 140 147 183 210 215 211 196 174 167 185 210 225 237 255 253 248 249 246 243 245 247 248 249 252 256 261 265 265 263 254 243 242 246 251 259 263 266 268 251 241 246
84 92 100 103 101 98 96 96 94 93 97 102 104 106 111 117 124 131 135 135 140 148 153 157 164 173 186 199 205 202 200 205 206 199 191 191 193 190 188 190 191 181 164 152 158 182 203 211 210 200 184 178 188 197 202 203 199 205 228 242 263 263 251 252 258 256 252 250 252 256 256 249 245 243 239 235 234 239 248 246 246 254 249 250 258
78 82 89 92 93 94 94 93 93 94 97 100 101 104 113 122 127 132 135 134 136 142 145 148 157 168 181 199 202 193 194 199 191 181 186 190 188 192 194 191 184 172 161 166 182 196 202 202 197 189 185 193 200 199 196 195 193 196 205 216 246 262 255 260 260 247 235 231 236 248 247 230 225 235 239 221 207 211 226 238 247 252 252 256 268
82 82 84 87 91 94 96 96 96 98 100 101 104 110 119 125 128 133 135 133 133 136 137 138 151 167 178 191 192 186 190 188 167 163 179 188 181 191 193 181 167 163 169 184 198 201 196 191 187 187 192 200 202 193 189 195 200 204 206 207 218 231 234 245 247 237 233 236 236 240 240 230 227 233 233 218 200 204 231 248 249 252 263 269 270
84 83 81 83 87 91 94 96 98 101 103 103 105 110 115 119 124 129 128 125 126 129 132 143 163 176 180 185 185 178 175 167 147 146 156 146 114 124 150 158 166 178 191 201 203 196 185 178 180 190 199 202 189 176 187 199 202 200 202 203 210 218 218 222 229 227 229 239 244 245 246 244 242 242 239 232 222 224 243 253 238 232 261 281 280
83 83 82 82 85 89 91 93 95 98 101 101 102 105 107 109 112 114 113 114 119 131 151 168 174 165 163 173 174 165 158 153 145 146 150 142 129 127 135 155 176 187 194 196 193 189 186 183 183 192 201 204 191 179 187 192 184 181 191 201 213 222 219 216 216 215 225 241 249 252 255 256 253 251 251 250 251 250 256 264 260 256 268 282 284